Regional Weather Roundup
Issued by NWS Jackson, KY

Home | Current Version | Previous Version | Graphics & Text | Print | Product List | Glossary On
Versions: 1 2 3 4 5 6 7 8 9 10 11 12 13 14 15 16 17 18 19 20 21 22 23 24 25 26 27 28 29 30 31 32 33 34 35 36 37 38 39 40 41 42 43 44 45 46 47
000
ASUS43 KJKL 271510
RWRJKL

EAST KENTUCKY HOURLY WEATHER ROUNDUP
NATIONAL WEATHER SERVICE JACKSON KY
1100 AM EDT MON APR 27 2015

NOTE: "FAIR" INDICATES FEW OR NO CLOUDS BELOW 12,000 FEET WITH
NO SIGNIFICANT WEATHER AND/OR OBSTRUCTIONS TO VISIBILITY.

* THESE REPORTS ARE NOT UNDER NWS QUALITY CONTROL AND MAY NOT
  REPORT WEATHER SUCH AS PRECIPITATION AND FOG.

KYZ079-080-083-085-087-088-110-112-115-119-120-271600
...EASTERN KENTUCKY...

CITY           SKY/WX    TMP DP  RH WIND       PRES   REMARKS
JACKSON        SUNNY     54  32  43 VRB3      29.96S
LONDON         SUNNY     55  29  36 VRB5      29.98S
SOMERSET*      SUNNY     54  32  43 CALM      30.02R
MONTICELLO*    SUNNY     57  35  43 VRB3      30.04R
MIDDLESBORO*   SUNNY     54  33  45 E6        29.99R
HARLAN APT*    SUNNY     52  30  43 E6        29.96R
HAZARD APT*    SUNNY     55  32  41 CALM      29.97R
BLACK MTN*       N/A     43  32  65 N5          N/A
PIKEVILLE APT* SUNNY     50  32  50 N5        29.95
BIG SANDY*     SUNNY     53  33  48 E5        29.96S
MOREHEAD APT*  SUNNY     54  32  43 W6        29.98S
$$

KYZ035-036-041-042-044-050-067-078-099-271600
...CENTRAL KENTUCKY...

CITY           SKY/WX    TMP DP  RH WIND       PRES   REMARKS
MT STERLING*   SUNNY     54  32  43 E5        29.99S
FLEMING/MASON* SUNNY     52  32  46 N5        29.97F
DANVILLE*      SUNNY     54  36  50 NE5       30.00R
RICHMOND*      SUNNY     54  34  47 NE7       29.98S
LEXINGTON      SUNNY     54  36  50 CALM      29.98S
FRANKFORT      SUNNY     54  36  50 VRB3      29.98R
$$

KYZ091>093-OHZ055-061-077-WVZ005-015-034-035-042-271600
...SOUTHERN OHIO/WEST VIRGINIA...

CITY           SKY/WX    TMP DP  RH WIND       PRES   REMARKS
COVINGTON      SUNNY     55  39  54 N5        29.97F
COLUMBUS       PTSUNNY   51  34  52 N9        29.98R
DAYTON         MOSUNNY   53  35  50 VRB3      29.99S
WILMINGTON     SUNNY     52  32  46 W6        29.96F
HUNTINGTON     SUNNY     53  33  46 N5        29.95F
CHARLESTON     MOSUNNY   52  32  46 NW12G20   29.94F
PINEVILLE*     MOSUNNY   52  34  50 MISG      29.98S
BECKLEY        MOSUNNY   47  29  49 N20       29.92R
BLUEFIELD      PTSUNNY   48  30  49 VRB6      29.92R
$$

VAZ002-007-008-TNZ017-027-036-066-071-271600
...SOUTHWEST VIRGINIA/EAST TENNESSEE...

CITY           SKY/WX    TMP DP  RH WIND       PRES   REMARKS
WISE*          PTSUNNY   48  30  49 NE8G20    29.94F
JONESVILLE*    SUNNY     54  32  43 W3        29.98R
ABINGDON*      SUNNY     53  31  44 NE5       29.93S
BRISTOL        MOSUNNY   55  34  45 N8        29.94R
KNOXVILLE      MOSUNNY   57  34  41 N9G20     29.95R
OAK RIDGE      SUNNY     59  34  39 VRB3      29.98R
CROSSVILLE     SUNNY     53  33  46 NE12      29.99R
NASHVILLE      MOSUNNY   59  39  47 NE7       30.02S
$$

...KEY TO REMARKS...
VSB - VISIBILITY IN MILES
WCI - WIND CHILL INDEX
HX  - HEAT INDEX

$$



USA.gov is the U.S. government's official web portal to all federal, state and local government web resources and services.